Regional Weather Roundup
Issued by NWS Spokane, WA

Home | Current Version | Previous Version | Text Only | Print | Product List | Glossary On
Versions: 1 2 3 4 5 6 7 8 9 10 11 12 13 14 15 16 17 18 19 20 21 22 23 24 25 26 27 28 29 30 31 32 33 34 35 36 37 38 39 40 41 42 43 44 45 46 47 48 49 50
000
NZUS01 KOTX 251325
RWROTX

Eastern Washington/Northern Idaho Roundup
National Weather Service, Spokane WA
600 AM PDT SAT MAR 25 2017

Note: "fair" indicated few or no clouds below 12,000 feet with no
significant weather and/or obstructions to visibility.

...Northeast Washington and Northern Idaho Panhandle...

CITY           SKY/WX    TMP DP  RH WIND       PRES   REMARKS
Spokane Downto CLOUDY    42  37  82 SW7       30.03
Coeur d Alene  CLOUDY    40  37  89 SW5       30.03R
Deer Park      CLOUDY    38  36  92 E3        30.02R
Sandpoint      DRIZZLE   39  37  93 S3        30.02R
Bonners Ferry  CLOUDY    39  37  93 S7        29.98S

...Southeast Washington and southern Idaho Panhandle...

CITY           SKY/WX    TMP DP  RH WIND       PRES   REMARKS
Walla Walla    LGT RAIN  46  38  73 S3        30.09R
Pullman/Moscow PTCLDY    38  33  82 S5        30.07R
Lewiston       CLOUDY    41  37  86 CALM      30.08S
Lowell           N/A     40  38  93 CALM      30.13R
Grangeville    CLOUDY    36  32  87 CALM      30.05F

...Columbia Basin...

CITY           SKY/WX    TMP DP  RH WIND       PRES   REMARKS
Ephrata        PTCLDY    36  31  82 NW7       30.01R
Moses Lake     MOCLDY    39  34  82 SW8       30.02R
Pasco          CLOUDY    47  38  71 SW14      30.09R
Richland       CLOUDY    47  39  72 S7        30.08S
Hermiston      MOCLDY    40  38  93 S10       30.09R
Pendleton      CLOUDY    41  37  86 SE3       30.08S

...East Slopes Cascades...

CITY           SKY/WX    TMP DP  RH WIND       PRES   REMARKS
The Dalles     CLOUDY    45  42  89 CALM      30.11R
Yakima         CLEAR     34  31  88 W5        30.05R WCI  30
Ellensburg     PTCLDY    35  30  82 W8        30.02R WCI  29
Wenatchee      CLEAR     34  33  96 NE3       30.01R
Omak           PTCLDY    34  30  85 E3        29.99S
Sunnyside      PTSUNNY   42  33  71 CALM      30.06S

...Southern British Columbia...

CITY           SKY/WX    TMP DP  RH WIND       PRES   REMARKS
Penticton      PTCLDY    41  36  81 SE7       29.95S
Castlegar      LGT RAIN  37  36  93 SE6       29.98
Cranbrook      MOCLDY    36  32  87 S10       29.92R
Osoyoos          N/A     43  37  81 E5          N/A
Creston          N/A     37  37 100 E3          N/A

...Western Montana...

CITY           SKY/WX    TMP DP  RH WIND       PRES   REMARKS
Kalispell      SUNNY     35  30  82 S6        29.98F
Missoula       CLOUDY    39  33  79 CALM      30.06R

...Neighboring Cities...

CITY           SKY/WX    TMP DP  RH WIND       PRES   REMARKS
Seattle        PTCLDY    43  40  89 S16       30.06R
Portland       PTCLDY    43  40  89 SE5       30.14R
Boise          MOCLDY    37  35  92 S3        30.09R
Great Falls    PTCLDY    41  24  51 SW20      29.92R
Calgary        PTCLDY    34  18  51 VRB2      29.76R



USA.gov is the U.S. government's official web portal to all federal, state and local government web resources and services.